• In Deutschland
  • Länderverzeichnis
  • Für 7 Tage
  • Wassertemperatur
  • Satellitenkarten
  • Wetterkarte
  • Widgets
  • user-avatar
    Anmelden

    Stündliche Wetter Ibiúna

    Heute, 21 Oktober, Sonntag

    Zeit Temperatur Niederschläge Wind Luftdruck Luftfeuchtigkeit
    00:00 +12°C° 0 mm 3 m/S 687 mmHg 84%
    01:00 +12°C° 0 mm 3 m/S 686 mmHg 85%
    02:00 +12°C° 0 mm 3 m/S 686 mmHg 85%
    03:00 +12°C° 0 mm 3 m/S 686 mmHg 85%
    04:00 +12°C° 0 mm 3 m/S 686 mmHg 86%
    05:00 +13°C° 0 mm 2 m/S 686 mmHg 86%
    06:00 +12°C° 0 mm 2 m/S 686 mmHg 86%
    07:00 +14°C° 0 mm 3 m/S 687 mmHg 77%
    08:00 +17°C° 0 mm 3 m/S 688 mmHg 68%
    09:00 +19°C° 0 mm 3 m/S 688 mmHg 59%
    10:00 +20°C° 0 mm 3 m/S 688 mmHg 55%
    11:00 +22°C° 0 mm 3 m/S 688 mmHg 51%
    12:00 +24°C° 0 mm 3 m/S 688 mmHg 46%
    13:00 +24°C° 0 mm 3 m/S 688 mmHg 48%
    14:00 +24°C° 0 mm 3 m/S 687 mmHg 49%
    15:00 +24°C° 0 mm 3 m/S 687 mmHg 50%
    16:00 +21°C° 0 mm 3 m/S 687 mmHg 59%
    17:00 +20°C° 0 mm 4 m/S 686 mmHg 67%
    18:00 +18°C° 0 mm 4 m/S 686 mmHg 76%
    19:00 +17°C° 0 mm 4 m/S 686 mmHg 79%
    20:00 +15°C° 0 mm 4 m/S 686 mmHg 81%
    21:00 +14°C° 0 mm 4 m/S 687 mmHg 84%
    22:00 +13°C° 0 mm 3 m/S 687 mmHg 85%
    23:00 +13°C° 0 mm 3 m/S 687 mmHg 85%

    Morgen, 22 Oktober, Montag

    Zeit Temperatur Niederschläge Wind Luftdruck Luftfeuchtigkeit
    00:00 +13°C° 0 mm 3 m/S 687 mmHg 85%
    01:00 +14°C° 0 mm 2 m/S 686 mmHg 85%
    02:00 +14°C° 0 mm 2 m/S 686 mmHg 86%
    03:00 +13°C° 0 mm 2 m/S 686 mmHg 87%
    04:00 +13°C° 0 mm 2 m/S 686 mmHg 87%
    05:00 +13°C° 0 mm 2 m/S 686 mmHg 87%
    06:00 +13°C° 0 mm 2 m/S 686 mmHg 88%
    07:00 +16°C° 0 mm 2 m/S 687 mmHg 78%
    08:00 +19°C° 0 mm 2 m/S 688 mmHg 69%
    09:00 +23°C° 0 mm 2 m/S 688 mmHg 60%
    10:00 +24°C° 0 mm 1 m/S 688 mmHg 55%
    11:00 +26°C° 0 mm 1 m/S 688 mmHg 50%
    12:00 +28°C° 0 mm 1 m/S 688 mmHg 45%
    13:00 +28°C° 0 mm 1 m/S 688 mmHg 45%
    14:00 +29°C° 0 mm 1 m/S 687 mmHg 44%
    15:00 +29°C° 0 mm 2 m/S 686 mmHg 43%
    16:00 +27°C° 0 mm 2 m/S 686 mmHg 52%
    17:00 +25°C° 0 mm 2 m/S 686 mmHg 61%
    18:00 +23°C° 0 mm 2 m/S 685 mmHg 69%
    19:00 +21°C° 0 mm 2 m/S 686 mmHg 75%
    20:00 +19°C° 0 mm 2 m/S 686 mmHg 81%
    21:00 +18°C° 0 mm 2 m/S 686 mmHg 86%
    22:00 +18°C° 0 mm 2 m/S 686 mmHg 86%
    23:00 +18°C° 0 mm 2 m/S 686 mmHg 85%

    übermorgen, 23 Oktober, Dienstag

    Zeit Temperatur Niederschläge Wind Luftdruck Luftfeuchtigkeit
    00:00 +17°C° 0 mm 2 m/S 686 mmHg 84%
    01:00 +18°C° 0 mm 1 m/S 685 mmHg 85%
    02:00 +18°C° 0 mm 1 m/S 685 mmHg 85%
    03:00 +18°C° 0 mm 1 m/S 684 mmHg 86%
    04:00 +18°C° 0 mm 1 m/S 685 mmHg 85%
    05:00 +18°C° 0 mm 1 m/S 685 mmHg 85%
    06:00 +19°C° 0 mm 1 m/S 685 mmHg 85%
    07:00 +21°C° 0 mm 1 m/S 686 mmHg 75%
    08:00 +24°C° 0 mm 2 m/S 687 mmHg 66%
    09:00 +27°C° 0 mm 2 m/S 688 mmHg 56%
    10:00 +27°C° 0.6 mm 2 m/S 687 mmHg 57%
    11:00 +28°C° 0.6 mm 2 m/S 687 mmHg 57%
    12:00 +29°C° 0.6 mm 2 m/S 687 mmHg 57%
    13:00 +29°C° 0.8 mm 2 m/S 686 mmHg 58%
    14:00 +28°C° 0.8 mm 2 m/S 686 mmHg 60%
    15:00 +28°C° 0.8 mm 2 m/S 685 mmHg 61%
    16:00 +26°C° 1.7 mm 2 m/S 685 mmHg 69%
    17:00 +24°C° 1.7 mm 3 m/S 685 mmHg 78%
    18:00 +21°C° 1.7 mm 3 m/S 685 mmHg 86%
    19:00 +20°C° 1.2 mm 3 m/S 685 mmHg 88%
    20:00 +20°C° 1.2 mm 3 m/S 686 mmHg 90%
    21:00 +19°C° 1.2 mm 3 m/S 687 mmHg 91%
    22:00 +19°C° 0.5 mm 3 m/S 686 mmHg 91%
    23:00 +18°C° 0.5 mm 3 m/S 686 mmHg 92%

    24 Oktober, Mittwoch

    Zeit Temperatur Niederschläge Wind Luftdruck Luftfeuchtigkeit
    00:00 +18°C° 0.5 mm 2 m/S 686 mmHg 92%
    01:00 +18°C° 0.3 mm 2 m/S 686 mmHg 92%
    02:00 +18°C° 0.3 mm 2 m/S 685 mmHg 92%
    03:00 +18°C° 0.3 mm 2 m/S 685 mmHg 93%
    04:00 +18°C° 0.8 mm 2 m/S 685 mmHg 93%
    05:00 +18°C° 0.8 mm 2 m/S 685 mmHg 93%
    06:00 +18°C° 0.8 mm 2 m/S 685 mmHg 93%
    07:00 +18°C° 1.3 mm 2 m/S 686 mmHg 92%
    08:00 +19°C° 1.3 mm 2 m/S 686 mmHg 91%
    09:00 +19°C° 1.3 mm 2 m/S 687 mmHg 90%
    10:00 +19°C° 1.9 mm 2 m/S 686 mmHg 90%
    11:00 +19°C° 1.9 mm 2 m/S 686 mmHg 90%
    12:00 +19°C° 1.9 mm 2 m/S 686 mmHg 91%
    13:00 +19°C° 1.8 mm 3 m/S 685 mmHg 91%
    14:00 +19°C° 1.8 mm 3 m/S 685 mmHg 91%
    15:00 +18°C° 1.8 mm 3 m/S 684 mmHg 91%
    16:00 +18°C° 0.6 mm 3 m/S 684 mmHg 91%
    17:00 +18°C° 0.6 mm 3 m/S 684 mmHg 92%
    18:00 +18°C° 0.6 mm 3 m/S 684 mmHg 92%
    19:00 +18°C° 0.5 mm 3 m/S 685 mmHg 92%
    20:00 +18°C° 0.5 mm 3 m/S 685 mmHg 92%
    21:00 +18°C° 0.5 mm 3 m/S 685 mmHg 93%
    22:00 +18°C° 0.9 mm 3 m/S 685 mmHg 93%
    23:00 +18°C° 0.9 mm 2 m/S 685 mmHg 93%

    25 Oktober, Donnerstag

    Zeit Temperatur Niederschläge Wind Luftdruck Luftfeuchtigkeit
    00:00 +18°C° 0.9 mm 2 m/S 685 mmHg 94%
    01:00 +18°C° 1.6 mm 2 m/S 684 mmHg 94%
    02:00 +18°C° 1.6 mm 2 m/S 684 mmHg 94%
    03:00 +18°C° 1.6 mm 2 m/S 683 mmHg 94%
    04:00 +18°C° 0.6 mm 2 m/S 683 mmHg 94%
    05:00 +18°C° 0.6 mm 2 m/S 684 mmHg 94%
    06:00 +18°C° 0.6 mm 2 m/S 684 mmHg 94%
    07:00 +19°C° 0.1 mm 2 m/S 684 mmHg 91%
    08:00 +20°C° 0.1 mm 2 m/S 685 mmHg 88%
    09:00 +20°C° 0.1 mm 2 m/S 685 mmHg 85%
    10:00 +21°C° 0.1 mm 2 m/S 685 mmHg 82%
    11:00 +23°C° 0.1 mm 2 m/S 685 mmHg 79%
    12:00 +24°C° 0.1 mm 2 m/S 684 mmHg 75%
    13:00 +24°C° 0.2 mm 3 m/S 684 mmHg 77%
    14:00 +22°C° 0.2 mm 3 m/S 683 mmHg 78%
    15:00 +22°C° 0.2 mm 3 m/S 683 mmHg 79%
    16:00 +21°C° 0.1 mm 3 m/S 683 mmHg 81%
    17:00 +21°C° 0.1 mm 3 m/S 683 mmHg 84%
    18:00 +20°C° 0.1 mm 3 m/S 683 mmHg 86%
    19:00 +19°C° 0 mm 3 m/S 683 mmHg 87%
    20:00 +19°C° 0 mm 3 m/S 683 mmHg 89%
    21:00 +18°C° 0 mm 2 m/S 684 mmHg 90%
    22:00 +18°C° 0 mm 2 m/S 683 mmHg 90%
    23:00 +18°C° 0 mm 2 m/S 683 mmHg 90%

    26 Oktober, Freitag

    Zeit Temperatur Niederschläge Wind Luftdruck Luftfeuchtigkeit
    00:00 +18°C° 0 mm 2 m/S 683 mmHg 90%
    01:00 +18°C° 0 mm 2 m/S 682 mmHg 90%
    02:00 +19°C° 0 mm 1 m/S 682 mmHg 90%
    03:00 +19°C° 0 mm 1 m/S 682 mmHg 91%
    04:00 +19°C° 0.2 mm 1 m/S 682 mmHg 91%
    05:00 +19°C° 0.2 mm 1 m/S 682 mmHg 92%
    06:00 +19°C° 0.2 mm 1 m/S 682 mmHg 93%
    07:00 +19°C° 0.2 mm 1 m/S 682 mmHg 91%
    08:00 +20°C° 0.2 mm 1 m/S 683 mmHg 89%
    09:00 +21°C° 0.2 mm 1 m/S 683 mmHg 87%
    10:00 +19°C° 1 mm 0 m/S 683 mmHg 88%
    11:00 +19°C° 1 mm 0 m/S 683 mmHg 90%
    12:00 +19°C° 1 mm 0 m/S 682 mmHg 91%
    13:00 +19°C° 1.2 mm 0 m/S 682 mmHg 91%
    14:00 +19°C° 1.2 mm 0 m/S 681 mmHg 92%
    15:00 +19°C° 1.2 mm 0 m/S 680 mmHg 92%
    16:00 +18°C° 2 mm 0 m/S 680 mmHg 93%
    17:00 +20°C° 2 mm 1 m/S 680 mmHg 94%
    18:00 +20°C° 2 mm 1 m/S 680 mmHg 95%
    19:00 +20°C° 1.5 mm 1 m/S 680 mmHg 95%
    20:00 +20°C° 1.5 mm 1 m/S 680 mmHg 96%
    21:00 +19°C° 1.5 mm 2 m/S 680 mmHg 96%
    22:00 +19°C° 6.4 mm 2 m/S 680 mmHg 97%
    23:00 +20°C° 6.4 mm 1 m/S 679 mmHg 97%
    Mehr zeigen